INTELSAT 33E DEB, 61994

Orbit data source: Space-Track

INTELSAT 33E DEB, 61994 is space debris in GEO originally from a launch on Wed, 24 Aug 2016 UTC launched from the French Guiana (FRGUI). Debris objects in space refer to the collection of defunct objects orbiting the Earth. Examples of debris include non-operational satellites, rocket bodies, and fragments generated from explosions, collisions, or faulty payload assembly.

Not visible in the next 10 days
Identifier
61994, 2016-053L
Orbit
GEO
Country
Flag of UnknownUnknown / ITSO
Related business
Manufacturer
Boeing/ES
Mission
Spacecraft
Bus & Motor
Unknown
Mass
Unknown
Launch date (UTC)
2016-08-24 (9 years ago)
Launch vehicle
Unknown
Launch site
French Guiana (FRGUI)
Object type
Payload
Rocket body
Debris
Shape & HBR
Unknown shape, 1.1 m
Radar Cross Section
RCS unknown

Expand to show TLE details & history
Last TLE update: 2 days ago

TLE from 2 days ago
0 INTELSAT 33E DEB
1 61994U 16053L   25314.04046385  .00000151  00000-0  00000-0 0  9996
2 61994   1.0182  89.3305 0025389 203.8376 155.7501  1.00503512  3898
Epoch: 2025-11-10T00:58Z
TLE epoch observation values (Epoch: 2025-11-10T00:58:16.076Z)
Latitude
Longitude
25.00059°
Altitude
35,818.62 km
Speed
3.07 km/s
True Right ascension
05h 56m 03s
True Declination
0° 00' 00"
Sunlit
Object was in daylight at epoch
Visualization orbit readout
Latitude
Unknown
Longitude
Unknown
Altitude
Unknown
Speed
Unknown
Apparent Right ascension
Unknown
Apparent Declination
Unknown
Sunlit
N/A
Visualization observer readout
Local Sidereal Time
02:05:15
Azimuth
Unknown
Elevation
Unknown
Doppler factor
Unknown
Orbital elements
Apogee altitude
35,829.72 km
Perigee altitude
35,615.94 km
Semi-major axis
42,100.967 km
Eccentricity
0.00254
Inclination
1.0182°
RAAN
89.3305°
Arg. of periapsis
203.8376°
True anomaly
155.86925°
Mean anomaly
155.7501°
Eccentric anomaly
155.80971°
Mean motion
0.25125 °/min
Orbital period
1,432.84 mins
BSTAR
0
Loading maneuver chart data...
Computing Atmospheric mass density...
Loading historical data...
Loading historical data...
Loading historical data...
Loading historical data...
Loading historical data...
Loading historical data...
Loading historical data...

Documentation

Showing up to 5 results
|